Regional Weather Roundup
Issued by NWS Upton, NY

Current Version | Previous Version | Graphics & Text | Print | Product List | Glossary Off
Versions: 1 2 3 4 5 6 7 8 9 10 11 12 13 14 15 16 17 18 19 20 21 22 23 24 25 26 27 28 29 30 31 32 33 34 35 36 37 38 39 40 41 42 43 44 45 46 47 48 49 50

000
ASUS41 KOKX 201408
RWROKX

REGIONAL WEATHER ROUNDUP
NATIONAL WEATHER SERVICE NEW YORK NY
900 AM EST MON NOV 20 2017

NOTE: "FAIR" INDICATES FEW OR NO CLOUDS BELOW 12,000 FEET WITH NO
SIGNIFICANT WEATHER AND/OR OBSTRUCTIONS TO VISIBILITY.

NYZ071-072-176-178-NJZ106-104-201500-
NEW YORK CITY METRO AREA

CITY           SKY/WX    TMP DP  RH WIND       PRES   REMARKS
Central Park   CLOUDY    38  24  57 VRB6      30.05R WCI  33
Bronx Bot Gard   N/A     37  23  56 W22       30.05R WCI  27
LaGuardia APRT PTSUNNY   39  24  55 W16G26    30.04R WCI  30
Kennedy INTL   PTSUNNY   40  26  57 W18G25    30.06R WCI  31
Breezy Point     N/A     39 N/A N/A W13G23      N/A  WCI  32
Newark/Liberty PTSUNNY   39  25  57 W12       30.05R WCI  32
Teterboro      CLOUDY    39  25  57 W10       30.03R WCI  32
$$

NYZ177-179-078>081-201500-
LONG ISLAND NEW YORK

CITY           SKY/WX    TMP DP  RH WIND       PRES   REMARKS
Jones Beach      N/A     39 N/A N/A W23G32      N/A  WCI  29
Matinecock PT    N/A     39 N/A N/A W20         N/A  WCI  30
Farmingdale    CLOUDY    39  25  57 W16G22    30.03R WCI  30
MacArthur/ISP  MOSUNNY   40  24  53 W15       30.01R WCI  32
Shirley        MOSUNNY   40  22  48 W14G25    30.01R WCI  32
Mt Sinai Harb    N/A    N/A N/A N/A W10G20      N/A
Westhampton    PTSUNNY   41  19  41 W21G29    30.01R
East Hampton   FAIR      40  20  44 W13G22    29.98R WCI  33
Southold       NOT AVBL
Montauk        NOT AVBL
$$

NYZ052-065-067-201500-
HUDSON VALLEY

CITY           SKY/WX    TMP DP  RH WIND       PRES   REMARKS
White Plains   PTSUNNY   36  24  62 W12G23    29.99R WCI  28
Larchmont Harb   N/A     37 N/A N/A SW14        N/A  WCI  29
Croton On Huds   N/A     37 N/A N/A W16G23      N/A  WCI  28
Newburgh       CLOUDY    36  23  60 W12       29.99R WCI  27
Montgomery     CLOUDY    37  21  52 W10       29.98R WCI  30
Poughkeepsie   CLOUDY    36  19  50 W6        29.99R WCI  31
Albany         CLOUDY    31  18  58 W12       29.97R WCI  22
$$

NJZ001-105-106-008-010-013-015-019>022-104-201500-
NEW JERSEY

CITY           SKY/WX    TMP DP  RH WIND       PRES   REMARKS
Newark/Liberty PTSUNNY   39  25  57 W12       30.05R WCI  32
Teterboro      CLOUDY    39  25  57 W10       30.03R WCI  32
Caldwell       CLOUDY    38  24  57 W14G21    30.03R WCI  30
Somerville     MOSUNNY   40  24  53 VRB5G18   30.04R
Linden         CLOUDY    38  24  58 W9        30.06R WCI  31
Perth Amboy      N/A     39 N/A N/A W17         N/A  WCI  30
Sussex         CLOUDY    37  27  67 VRB5      30.00R WCI  33
Andover        NOT AVBL
Trenton        SUNNY     39  22  50 W12G20    30.07R WCI  32
Millville      SUNNY     43  22  43 W15G24    30.16R
Atlantic City  SUNNY     41  21  44 W16G26    30.14R
Wrightstown    SUNNY     40  22  47 W16G24    30.07R WCI  32
Toms River     SUNNY     41  23  48 W15G21    30.11R
Belmar         SUNNY     40  22  48 W14G21    30.08R WCI  32
$$

PAZ047>061-062-071-201500-
EASTERN PENNSYLVANIA

CITY           SKY/WX    TMP DP  RH WIND       PRES   REMARKS
Philadelphia   MOSUNNY   40  21  46 W15       30.12R WCI  32
Allentown      SUNNY     39  22  50 W20G28    30.05R WCI  29
Scranton       CLOUDY    34  25  69 SW13G23   30.02R WCI  25
$$

CTZ002-004>006-009-010-012-RIZ004-006-007-MAZ004-011-015-201500-
SOUTHERN NEW ENGLAND
 IN CT

CITY           SKY/WX    TMP DP  RH WIND       PRES   REMARKS
Bradley INTL   PTSUNNY   35  23  61 NW14      29.96R WCI  26
Hartford       MOSUNNY   37  23  56 NW7       29.97R WCI  32
Danbury        MOSUNNY   38  19  46 W8G22     29.99R WCI  32
Wtrbury/Oxford MOSUNNY   35  19  52 W7G17     29.95R WCI  29
Norwalk Harbor   N/A     37 N/A N/A W20G25      N/A  WCI  27
Bridgeport     SUNNY     40  21  46 W14G26    29.99R WCI  32
Meriden        SUNNY     37  19  48 W9        29.97R WCI  30
New Haven      MOSUNNY   40  21  46 VRB7      29.98R
Chester        FAIR      37  18  44 W8G18     29.95R WCI  31
Groton         SUNNY     39  19  44 W16       29.96R WCI  30
Wilimantic     MOSUNNY   37  22  54 W14G21    29.95R WCI  28

 IN RI

CITY           SKY/WX    TMP DP  RH WIND       PRES   REMARKS
Providence     MOSUNNY   38  21  50 W13G24    29.94R WCI  30
Block Island   PTSUNNY   40  21  46 W17G28    29.96R WCI  31
Westerly       SUNNY     39  20  46 W9        29.96R WCI  33
 IN MA

CITY           SKY/WX    TMP DP  RH WIND       PRES   REMARKS
Boston         MOSUNNY   36  15  42 W17G31    29.87R WCI  26
Worcester      SUNNY     32  13  45 W18G32    29.84R WCI  20
Westfield      PTSUNNY   35  20  54 NW12      29.94R WCI  27
Provincetown   SUNNY     38  18  44 W29G41    29.87R WCI  26
Nantucket      MOSUNNY   40  17  39 NW24G37   29.92R WCI  29
$$

ANZ330-335-338-340-345-350-353-355-201500-
COASTAL MARINE OBSERVATIONS


STATION/POSITION TIME  SKY/WX   TEMP    WIND        PRES    VSBY  WAVE
                                AIR SEA DIR/SP/G                  HT/PER
                 (UTC)          (F)     (DEG/KT/KT) (MB)    (MI)  (FT/S)
NY HARB ENTRANCE 1250            41 57  280/ 23/ 31 1015.7          4/ 4
20 S FIRE ISLAND 1250            42 57  280/ 25/ 31 1015.9          6/ 5
GREAT SOUTH BAY  1330            39 47  270/ 17/ 21   N/A
HUDSON CANYON    1250            45 59  300/ 27/ 35 1015.6         10/ 8
KINGS POINT      1330            38 50  320/ 13/ 16 1017.7
EXECUTION ROCKS  1345            42     240/ 14/ 17   N/A
WESTERN LI SOUND 1249            40     260/ 19/ 27   N/A           2/ 3
CENTRAL LI SOUND NOT AVBL
ROBBINS REEF     1336            38     270/ 13/ 18 1017.8
$$


>>>>>>>>>>>>>>>>>>>>>>>>>>>> KEY <<<<<<<<<<<<<<<<<<<<<<<<<<<
>                                                          <
>     SKY/WX - Sky Condition/Present Weather               <
>     TMP    - Temperature in Fahrenheit                   <
>     DP     - Dew Point in Fahrenheit                     <
>     RH     - Relative Humidity in Percent                <
>     WIND   - Direction (from) and Speed in MPH           <
>     PRES   - Mean Sea Level Pressure (inches of Hg)      <
>     WCI    - Wind Chill Index                            <
>     VSB    - VISIBILITY IN MILES                         <
>     HX     - HEAT INDEX                                  <
>     TC     - TEMPERATURE IN CELSIUS                      <
>     VRB    - VARIABLE WIND DIRECTION                     <
>                                                          <
>>>>>>>>>>>>>>>>>>>>>>>>>>>> KEY <<<<<<<<<<<<<<<<<<<<<<<<<<<



USA.gov is the U.S. government's official web portal to all federal, state and local government web resources and services.